Location: Buch
(49.7331°N, 12.1098°E)
Time: 15:12:07
(UTC+00:00)

Cosmos 1777 Rocket - Pass Details

Date: 12 May 2021
Orbit: 758 x 776 km, 74.0° (Epoch: 17 June)

Event Time Altitude Azimuth Distance (km) Brightness Sun altitude
Rises 20:07:50 0° 197° (SSW) 3,204 6.9 -11.2°
Reaches altitude 10° 20:10:12 10° 196° (SSW) 2,283 6.2 -11.4°
Maximum altitude 20:15:22 78° 111° (ESE) 781 3.9 -12.0°
Drops below altitude 10° 20:20:35 10° 26° (NNE) 2,301 6.8 -12.5°
Sets 20:22:57 0° 25° (NNE) 3,232 7.6 -12.8°
